Probability
42 29 42 48 39 29 32 29 23 23 19 16 16 19 19 19 16 19 23 32 26 29 32 35 42 35 42 48 55 48 52 48 48 42 48 45 39 42 35 32 29 26 23
42 35 35 35 35 32 26 29 26 29 26 23 16 19 19 19 26 26 19 19 32 29 32 39 35 35 39 45 52 52 48 42 48 45 42 39 42 42 32 32 26 23 23
32 32 35 35 35 32 32 29 32 29 29 23 19 19 19 19 23 23 26 32 26 26 26 32 32 35 39 42 45 42 48 42 45 42 35 39 39 32 29 32 26 29 23
32 39 32 23 29 39 35 32 39 32 23 23 29 29 26 35 32 29 26 26 23 19 23 26 29 26 23 29 35 35 39 39 35 39 35 35 35 39 29 26 26 26 19
42 29 29 32 35 35 42 26 16 42 32 29 29 29 19 23 32 16 23 19 23 19 16 13 19 23 19 23 23 29 26 29 35 39 39 35 35 35 35 23 29 26 29
39 32 32 32 32 39 39 39 35 45 42 42 13 10 16 16 16 23 19 19 26 16 13 13 19 13 19 19 19 23 26 35 26 29 29 29 32 29 29 23 23 23 23
42 42 26 42 42 35 45 32 32 29 32 26 23 10 16 13 16 19 16 13 10 13 16 16 19 23 19 10 16 19 23 32 29 26 26 32 29 26 26 26 23 16 16
45 39 39 35 39 45 42 42 45 35 23 23 19 16 10 6 16 10 16 16 19 16 16 19 19 29 19 19 10 13 13 13 23 19 23 29 29 23 23 23 23 19 13
42 42 42 32 42 32 35 48 45 42 19 19 16 10 10 6 10 13 13 13 16 23 19 19 19 23 23 23 16 3 10 10 19 13 16 26 29 26 23 23 23 16 16
39 35 35 35 39 32 39 35 32 32 35 16 19 19 10 10 16 13 16 13 16 19 23 13 13 23 26 23 16 3 3 3 10 13 13 19 23 23 23 23 23 19 16
32 29 35 32 35 32 32 35 35 23 26 19 10 10 16 26 6 10 13 10 13 16 16 19 19 23 16 23 23 16 0 0 0 0 6 10 16 16 16 19 19 19 19
32 26 23 26 26 26 39 39 39 26 26 26 23 13 10 13 13 13 16 16 13 10 16 23 23 19 16 19 16 3 0 0 0 0 0 3 6 13 10 10 13 13 16
29 39 19 29 19 32 29 35 39 26 23 29 26 23 13 10 13 13 16 16 13 10 16 19 16 16 13 19 23 3 0 0 0 0 0 0 0 3 6 6 6 10 13
23 29 23 26 26 23 16 23 29 23 35 32 13 23 23 13 6 10 13 6 10 3 10 13 16 16 16 19 16 0 10 0 0 0 0 0 0 0 0 6 6 3 3
19 19 19 16 19 19 19 23 19 26 29 29 19 26 26 19 19 16 16 19 16 10 3 13 13 19 16 26 10 16 19 3 0 0 0 0 0 0 0 0 0 0 0
13 16 13 10 10 10 13 16 16 13 19 26 26 29 23 19 19 19 19 13 13 10 6 6 10 10 19 3 3 19 23 3 0 0 0 0 0 0 0 0 0 0 0
16 13 6 10 10 13 13 16 13 13 13 16 19 16 19 16 16 10 16 10 13 13 13 10 6 10 10 13 13 19 16 19 3 0 0 0 0 0 0 0 0 0 0
10 6 6 6 6 10 10 10 13 13 13 16 13 19 6 6 19 13 16 6 10 16 10 6 6 10 13 16 16 23 16 6 10 0 0 0 0 0 0 0 0 0 0
10 6 6 6 6 6 6 6 6 10 13 10 13 10 10 6 10 10 3 6 6 0 13 6 6 13 10 10 13 13 10 19 0 0 0 0 0 0 0 0 0 0 0
6 6 6 6 6 6 6 6 10 10 10 10 10 10 6 3 3 6 0 6 3 10 10 3 3 6 6 13 16 10 13 16 13 0 0 0 0 0 0 0 0 0 0
6 6 6 6 6 6 3 3 6 6 10 10 10 6 6 3 0 0 0 3 3 6 10 6 3 0 0 6 3 0 0 10 6 3 6 3 0 0 0 0 0 0 0
6 6 6 6 6 3 3 3 3 3 6 10 6 3 0 0 0 0 0 0 0 6 6 3 0 3 3 3 6 3 0 0 3 6 6 3 6 6 13 3 0 0 0
6 10 6 6 6 3 0 0 3 6 6 10 3 6 0 0 0 0 0 0 0 0 0 3 3 3 3 0 0 3 6 6 3 6 10 6 10 10 10 0 0 0 0
6 10 6 6 6 3 0 0 0 3 3 3 3 0 3 3 0 0 0 0 0 0 0 0 3 0 0 0 0 0 3 13 13 13 6 6 10 13 0 6 0 0 0
10 13 10 3 3 0 0 0 0 3 3 3 0 0 0 0 0 0 0 0 0 0 0 0 0 0 0 0 0 3 3 3 3 6 13 3 6 13 13 10 3 0 0
10 6 3 3 3 3 0 0 0 0 0 0 0 0 0 0 0 0 0 0 0 0 0 0 0 0 0 0 0 0 0 0 0 0 3 6 6 10 6 6 3 6 0
Height
5865 5865 5865 5864 5864 5864 5864 5864 5864 5864 5864 5865 5865 5865 5866 5866 5866 5867 5868 5868 5869 5870 5870 5871 5872 5872 5873 5873 5874 5874 5875 5875 5876 5877 5877 5878 5879 5879 5879 5880 5880 5880 5880
5861 5861 5861 5861 5861 5860 5860 5860 5861 5861 5861 5861 5862 5862 5862 5863 5863 5864 5864 5865 5866 5866 5867 5868 5868 5869 5869 5870 5870 5871 5871 5872 5873 5873 5874 5875 5875 5875 5876 5876 5877 5877 5877
5858 5858 5858 5857 5857 5856 5856 5857 5857 5857 5858 5858 5858 5858 5858 5859 5860 5860 5861 5861 5862 5863 5863 5864 5865 5865 5866 5866 5867 5867 5868 5868 5869 5870 5870 5871 5871 5872 5872 5873 5873 5873 5874
5854 5854 5854 5854 5853 5853 5853 5853 5853 5853 5854 5854 5854 5854 5855 5855 5856 5856 5857 5857 5858 5859 5859 5860 5861 5861 5862 5862 5863 5863 5864 5864 5865 5866 5866 5867 5867 5868 5868 5869 5869 5870 5870
5851 5851 5850 5850 5849 5849 5849 5849 5849 5849 5849 5849 5849 5850 5850 5851 5851 5852 5852 5853 5853 5854 5855 5855 5856 5857 5857 5858 5859 5859 5860 5860 5861 5861 5862 5863 5863 5864 5864 5864 5865 5865 5866
5847 5847 5847 5846 5845 5845 5845 5845 5844 5844 5844 5844 5845 5845 5845 5846 5847 5847 5848 5848 5849 5849 5850 5851 5851 5851 5852 5853 5854 5855 5856 5856 5856 5857 5858 5858 5859 5859 5860 5860 5860 5861 5861
5843 5843 5842 5842 5841 5841 5840 5840 5839 5840 5840 5840 5840 5840 5841 5841 5842 5842 5843 5843 5844 5844 5845 5845 5846 5846 5847 5848 5849 5850 5851 5851 5852 5853 5853 5854 5854 5855 5855 5855 5856 5856 5857
5839 5839 5838 5837 5837 5836 5835 5835 5834 5834 5835 5835 5835 5835 5836 5837 5837 5837 5837 5838 5839 5839 5840 5840 5840 5841 5841 5842 5844 5844 5845 5846 5846 5847 5848 5848 5849 5849 5850 5851 5851 5851 5852
5834 5835 5834 5833 5832 5831 5830 5829 5829 5829 5829 5829 5829 5830 5830 5831 5831 5831 5831 5832 5833 5833 5834 5834 5834 5835 5836 5836 5837 5838 5839 5840 5841 5841 5842 5843 5843 5844 5845 5845 5846 5846 5847
5830 5830 5830 5829 5828 5826 5825 5824 5824 5823 5823 5823 5824 5824 5824 5825 5825 5825 5826 5826 5826 5826 5827 5828 5828 5829 5829 5830 5831 5832 5833 5833 5834 5835 5835 5836 5837 5838 5838 5839 5840 5840 5841
5826 5825 5825 5824 5823 5822 5820 5820 5819 5818 5817 5817 5817 5817 5818 5818 5819 5819 5819 5819 5820 5820 5820 5821 5821 5822 5822 5823 5824 5825 5826 5827 5828 5828 5829 5829 5830 5831 5832 5833 5833 5834 5835
5821 5820 5820 5819 5818 5817 5815 5814 5814 5813 5813 5812 5812 5812 5812 5812 5813 5813 5813 5813 5813 5813 5813 5814 5814 5815 5815 5816 5817 5818 5819 5820 5821 5821 5822 5823 5823 5824 5825 5826 5827 5827 5828
5816 5815 5814 5813 5812 5811 5810 5809 5808 5808 5807 5807 5806 5806 5806 5806 5806 5806 5806 5806 5806 5806 5806 5806 5806 5807 5808 5809 5810 5811 5812 5812 5813 5814 5815 5815 5816 5817 5817 5818 5819 5820 5821
5810 5809 5809 5808 5807 5806 5804 5804 5803 5802 5801 5801 5800 5800 5799 5799 5799 5799 5799 5799 5799 5799 5799 5799 5799 5799 5800 5800 5802 5803 5804 5805 5805 5806 5807 5808 5808 5809 5810 5810 5811 5812 5812
5805 5804 5803 5802 5801 5800 5799 5798 5797 5796 5795 5794 5794 5793 5793 5792 5792 5791 5791 5791 5791 5791 5791 5791 5791 5791 5791 5792 5792 5794 5795 5796 5797 5798 5799 5799 5800 5800 5801 5802 5803 5803 5804
5799 5798 5797 5795 5794 5793 5792 5791 5790 5789 5788 5786 5786 5785 5785 5785 5784 5783 5783 5782 5782 5782 5782 5783 5783 5783 5783 5783 5784 5785 5786 5787 5788 5789 5789 5790 5791 5791 5792 5792 5793 5794 5795
5792 5791 5790 5789 5788 5786 5785 5784 5782 5781 5779 5778 5777 5777 5776 5776 5776 5775 5774 5774 5774 5774 5774 5774 5774 5774 5774 5775 5775 5776 5776 5777 5778 5779 5780 5781 5781 5782 5783 5783 5784 5784 5785
5785 5784 5783 5781 5780 5779 5778 5776 5775 5773 5771 5770 5768 5768 5768 5767 5767 5766 5766 5765 5765 5765 5765 5765 5765 5765 5765 5765 5766 5766 5767 5767 5768 5769 5770 5771 5772 5772 5773 5773 5774 5775 5775
5778 5777 5775 5774 5773 5771 5770 5768 5767 5765 5763 5761 5760 5759 5758 5758 5758 5757 5757 5756 5756 5756 5756 5756 5756 5756 5756 5756 5756 5757 5757 5758 5758 5759 5760 5761 5761 5762 5763 5763 5764 5765 5766
5771 5769 5768 5767 5765 5763 5762 5760 5758 5756 5755 5753 5752 5750 5750 5749 5749 5749 5748 5747 5747 5747 5747 5747 5747 5747 5747 5747 5747 5747 5748 5748 5748 5749 5750 5750 5751 5752 5753 5753 5755 5755 5757
5763 5762 5761 5759 5757 5756 5754 5752 5751 5749 5747 5745 5744 5743 5742 5741 5741 5740 5740 5739 5739 5738 5738 5738 5738 5738 5738 5737 5738 5738 5738 5738 5739 5739 5740 5740 5741 5742 5743 5743 5745 5746 5747
5756 5755 5753 5752 5750 5749 5747 5745 5744 5742 5740 5738 5736 5735 5734 5733 5733 5732 5731 5730 5730 5730 5729 5729 5728 5728 5728 5728 5729 5729 5729 5729 5730 5731 5730 5731 5731 5732 5733 5734 5735 5736 5737
5749 5747 5746 5744 5743 5741 5740 5738 5736 5734 5733 5731 5729 5728 5726 5725 5724 5724 5723 5722 5721 5720 5720 5720 5719 5719 5719 5720 5720 5720 5720 5720 5720 5720 5720 5721 5722 5722 5723 5724 5725 5726 5727
5741 5739 5738 5737 5736 5734 5733 5731 5729 5727 5725 5723 5722 5720 5718 5717 5716 5715 5714 5713 5712 5711 5711 5710 5710 5710 5710 5710 5711 5711 5710 5711 5711 5711 5711 5712 5712 5713 5713 5714 5715 5716 5717
5732 5731 5730 5729 5728 5727 5725 5723 5721 5719 5717 5715 5713 5712 5710 5709 5708 5707 5706 5704 5703 5702 5702 5702 5701 5701 5701 5701 5701 5701 5701 5701 5702 5702 5702 5702 5703 5703 5704 5704 5705 5706 5707
5725 5724 5723 5722 5720 5719 5717 5715 5713 5711 5709 5707 5706 5704 5703 5701 5700 5698 5697 5696 5694 5694 5693 5693 5692 5692 5692 5692 5692 5692 5691 5692 5692 5692 5693 5693 5693 5694 5694 5695 5695 5695 5696
Wind_Speed
10 11 11 12 12 13 12 13 12 12 12 12 12 13 13 14 14 14 14 14 15 14 14 14 14 14 14 14 15 15 15 15 15 15 15 15 15 16 15 15 15 15 15
11 11 12 13 13 13 13 13 13 13 13 14 14 14 14 14 15 16 16 16 16 15 15 15 15 15 16 16 16 16 17 17 17 16 16 15 16 16 16 16 16 15 15
12 12 12 13 13 13 14 14 14 15 15 15 15 15 16 16 16 16 16 17 17 17 17 16 17 16 17 17 17 17 17 17 17 17 17 16 16 16 16 17 17 17 16
13 13 13 13 14 14 14 15 16 16 17 16 16 16 16 17 17 17 17 17 18 18 18 18 19 18 18 18 18 18 17 17 18 18 18 18 17 17 17 17 18 18 18
13 13 13 14 14 14 15 15 16 16 17 17 17 17 17 18 18 18 18 18 19 19 19 19 20 20 19 19 19 19 19 19 18 19 19 19 19 19 19 18 18 18 18
15 14 14 14 15 15 15 16 17 17 17 18 19 19 19 19 19 19 19 19 20 21 20 20 20 20 20 21 21 21 21 20 20 20 20 20 20 20 20 20 19 19 19
15 15 15 15 15 16 16 16 17 17 18 19 19 19 20 20 21 21 21 21 21 21 22 22 22 21 21 22 22 22 22 22 21 21 22 21 21 21 21 21 21 20 19
14 14 15 15 16 17 17 18 18 19 19 20 20 20 21 22 22 22 22 22 23 23 23 23 24 24 23 23 23 23 24 23 23 23 23 23 23 22 22 22 22 21 21
15 16 16 16 16 17 17 17 18 20 20 21 21 21 21 22 23 22 22 23 24 24 24 25 25 26 26 26 25 24 24 25 25 25 25 24 24 24 24 24 23 23 23
16 16 17 18 18 18 17 17 17 18 20 21 22 22 22 23 23 23 24 24 25 25 26 26 27 27 27 27 27 26 25 25 26 26 26 26 26 26 26 25 25 24 24
18 17 18 19 18 18 18 18 17 17 18 20 21 22 23 23 24 24 24 25 26 26 27 27 27 27 27 27 27 27 27 27 27 27 27 27 27 27 27 27 27 26 26
19 19 19 20 20 19 18 17 17 18 18 19 20 21 23 24 24 25 26 27 26 27 27 28 28 28 27 28 28 28 28 29 28 28 28 28 28 28 28 29 29 29 28
21 21 21 21 21 20 19 18 19 19 19 20 21 22 23 24 25 26 26 26 27 28 27 27 28 29 29 29 29 29 29 29 29 29 29 29 30 30 29 31 31 30 30
21 22 21 21 21 20 20 20 21 21 21 22 22 23 23 24 25 26 27 28 29 29 29 28 29 29 30 30 30 30 30 30 30 30 30 30 31 31 31 31 31 31 32
22 22 22 22 21 21 21 22 22 23 24 24 24 25 25 25 26 27 29 29 28 29 29 30 30 30 30 31 31 31 32 32 32 32 32 32 32 32 33 32 32 32 32
23 23 23 23 22 22 23 23 24 25 26 26 26 27 27 27 28 28 29 29 29 29 29 29 30 30 30 31 31 32 32 32 32 33 33 33 33 33 33 33 33 33 33
24 25 25 24 24 25 24 25 25 26 27 27 28 27 27 28 29 29 29 29 29 29 30 30 30 30 31 31 31 32 32 33 33 33 34 34 34 34 34 34 34 34 33
24 25 25 25 25 26 26 26 26 27 27 27 27 27 27 28 28 28 28 29 29 30 30 30 30 31 32 32 31 32 32 33 34 34 34 35 34 34 34 34 34 34 34
25 26 26 26 26 26 27 27 27 27 27 27 27 27 27 27 28 28 28 29 29 29 29 31 31 31 32 32 32 32 32 33 33 34 34 35 35 34 34 34 34 34 34
25 26 26 26 26 26 26 27 26 26 27 27 26 26 26 27 27 27 28 29 29 30 30 31 31 31 32 32 32 32 32 32 33 33 34 34 34 35 34 34 34 34 34
25 26 26 26 26 25 25 26 26 27 26 25 24 24 25 26 26 27 27 28 29 30 31 32 32 31 31 32 32 32 32 32 32 32 33 33 33 34 34 34 34 34 34
25 26 26 25 24 25 25 25 25 26 25 24 24 25 26 26 26 27 28 28 29 30 30 31 31 31 31 31 31 31 30 30 31 32 33 33 33 32 33 33 33 33 33
26 27 27 26 25 25 25 24 24 24 24 24 25 25 25 26 26 27 27 28 28 29 30 30 30 31 30 30 30 30 30 30 31 31 32 32 32 32 33 33 33 34 34
27 27 27 25 24 24 24 24 25 25 25 25 26 26 26 26 26 27 27 27 28 28 29 29 29 30 30 30 31 31 31 31 31 31 32 31 32 32 32 33 33 33 34
26 26 25 24 24 24 24 25 25 25 25 25 24 25 25 26 27 27 27 27 28 28 28 28 28 28 29 30 31 32 32 32 31 31 31 32 32 32 33 32 33 33 33
24 25 25 25 25 25 26 26 26 26 25 24 24 24 25 25 26 26 27 27 27 27 28 28 28 29 30 31 32 33 33 32 32 32 32 32 32 32 32 32 33 33 33
Wind_Direction
272 270 266 264 264 264 263 261 261 260 258 256 255 256 256 254 254 254 256 255 254 253 257 257 255 253 251 252 255 255 256 257 257 255 255 255 257 257 258 259 261 264 263
272 270 271 270 267 265 261 259 259 260 261 260 257 257 257 255 256 256 256 255 254 255 258 257 256 256 254 256 258 259 255 255 257 257 256 256 259 260 259 260 262 263 264
273 272 275 273 269 265 260 258 259 260 260 261 261 261 259 258 259 258 257 255 254 257 258 257 256 258 257 257 258 260 258 256 254 255 257 258 260 260 261 260 260 260 261
278 275 275 275 271 267 261 259 259 260 261 261 261 263 262 260 258 257 257 256 255 258 258 259 260 261 261 259 258 257 257 256 253 252 254 257 260 261 262 263 261 261 260
282 278 276 275 273 270 264 262 262 262 262 262 263 264 261 261 259 258 258 257 257 259 259 259 260 261 260 259 256 255 254 254 253 251 252 255 258 260 260 261 261 262 260
280 278 277 277 274 271 267 263 263 263 263 263 264 264 262 260 261 259 259 258 258 259 259 258 258 257 258 258 255 255 255 255 254 254 253 255 258 258 259 260 261 262 262
278 277 276 277 274 272 269 264 264 264 263 263 264 264 262 260 261 260 258 258 260 260 259 258 258 257 258 259 255 255 254 254 255 256 256 256 258 258 258 259 261 263 263
276 276 274 278 277 276 272 267 264 264 264 262 262 262 263 261 260 259 257 259 260 260 259 260 260 258 258 259 256 256 255 254 255 256 256 257 256 256 257 257 258 261 262
277 278 276 280 281 278 278 273 267 264 263 263 262 263 263 262 261 262 261 261 261 261 261 260 259 259 259 259 257 257 256 255 256 257 257 257 255 255 255 256 257 260 261
280 279 282 284 284 283 279 275 275 270 265 262 262 263 262 262 263 264 265 264 262 261 262 260 259 259 259 260 258 256 255 255 256 258 259 257 256 256 256 257 259 260 261
281 281 285 286 284 282 279 278 277 273 267 264 263 263 263 262 263 264 264 266 263 261 261 260 260 261 261 261 259 257 255 256 256 257 258 259 257 256 256 257 259 260 261
280 281 283 284 282 280 278 275 275 274 273 271 268 266 265 263 263 264 266 267 265 263 263 263 262 262 261 261 260 258 257 257 257 258 259 259 259 258 258 258 259 260 261
279 280 280 281 280 279 278 275 275 276 276 273 272 270 265 264 264 265 266 267 266 265 265 264 263 263 260 259 259 259 259 259 259 258 259 259 259 259 259 259 259 259 260
277 277 278 279 278 277 278 277 276 275 275 274 274 273 269 268 268 267 268 268 267 264 264 264 264 263 262 260 258 258 259 261 260 258 259 259 259 260 260 260 260 259 260
276 278 278 277 276 275 276 278 277 275 275 275 275 273 272 271 272 271 269 268 268 266 265 265 264 263 263 261 259 259 260 261 260 259 259 260 261 261 261 260 262 261 259
276 278 280 278 276 277 278 278 278 277 277 277 276 276 274 273 273 273 272 269 269 268 266 265 264 263 262 261 261 260 260 261 261 261 261 261 262 260 260 260 260 260 260
275 276 278 279 280 280 280 280 279 280 280 279 276 274 273 272 273 272 272 270 270 269 268 265 263 263 262 262 261 261 261 261 262 262 262 262 261 260 259 260 260 259 259
275 276 279 280 280 282 283 283 283 282 281 280 277 274 273 272 272 273 271 270 270 270 268 266 264 264 263 262 260 261 261 261 261 261 261 261 260 260 260 261 261 260 259
276 279 280 283 283 283 283 283 284 284 282 280 277 275 274 274 274 273 271 270 270 270 269 268 266 266 264 262 261 262 262 262 262 262 262 261 260 261 260 260 262 260 258
277 280 281 282 283 283 284 283 284 285 283 280 278 277 277 276 274 272 272 270 269 269 269 268 268 267 267 265 264 263 263 264 263 262 262 262 261 261 261 261 260 259 258
278 279 280 281 281 281 282 283 284 284 284 282 281 279 278 277 276 274 274 272 271 270 270 269 267 267 267 266 266 264 264 264 263 261 261 262 263 262 261 260 259 259 259
279 281 281 282 280 282 284 284 285 285 284 284 282 280 278 277 277 275 275 274 272 271 270 268 267 266 265 265 265 266 266 265 264 261 260 261 262 262 261 261 260 259 259
280 281 282 282 281 283 284 285 287 287 285 283 282 280 278 278 278 277 276 276 274 272 270 268 267 266 265 265 265 265 266 266 267 265 263 261 261 263 263 262 261 261 261
281 281 280 278 279 282 284 287 287 285 284 281 281 280 279 279 278 277 277 278 276 273 271 269 267 266 265 264 264 265 265 266 266 265 264 263 262 264 265 265 263 262 262
281 281 280 278 279 282 285 287 285 285 284 281 280 280 279 279 279 279 278 278 277 273 272 271 270 268 266 265 265 265 266 266 267 265 263 264 264 265 265 266 265 264 264
283 284 282 281 281 283 287 287 285 285 285 284 283 282 282 280 280 280 279 278 276 274 274 275 273 270 268 267 266 266 267 267 268 266 264 265 265 265 265 266 266 265 265